Time,TemperatureF,DewpointF,PressureIn,WindDirection,WindDirectionDegrees,WindSpeedMPH,WindSpeedGustMPH,Humidity,HourlyPrecipIn,Conditions,Clouds,dailyrainin,SoftwareType,DateUTC
2013-01-09 00:02:00,33.0,28.0,30.14,West,265,4.0,8.0,83,0.00,,,0.00,,2013-01-09 06:02:00,
2013-01-09 00:12:00,33.0,28.0,30.14,West,265,4.0,8.0,83,0.00,,,0.00,,2013-01-09 06:12:00,
2013-01-09 00:22:00,33.0,29.0,30.14,SW,226,5.0,9.0,84,0.00,,,0.00,,2013-01-09 06:22:00,
2013-01-09 00:32:00,32.0,28.0,30.15,WSW,249,3.0,8.0,84,0.00,,,0.00,,2013-01-09 06:32:00,
2013-01-09 00:42:00,32.0,28.0,30.15,WSW,249,3.0,8.0,84,0.00,,,0.00,,2013-01-09 06:42:00,
2013-01-09 00:52:00,32.0,28.0,30.16,WSW,238,3.0,5.0,84,0.00,,,0.00,,2013-01-09 06:52:00,
2013-01-09 01:02:00,32.0,28.0,30.17,WSW,254,3.0,8.0,84,0.00,,,0.00,,2013-01-09 07:02:00,
2013-01-09 01:12:00,32.0,28.0,30.17,WSW,254,3.0,8.0,84,0.00,,,0.00,,2013-01-09 07:12:00,
2013-01-09 01:22:00,32.0,28.0,30.17,WSW,254,4.0,9.0,84,0.00,,,0.00,,2013-01-09 07:22:00,
2013-01-09 01:32:00,32.0,28.0,30.19,West,272,4.0,8.0,85,0.00,,,0.00,,2013-01-09 07:32:00,
2013-01-09 01:42:00,32.0,28.0,30.19,West,272,4.0,8.0,85,0.00,,,0.00,,2013-01-09 07:42:00,
2013-01-09 01:52:00,32.0,28.0,30.19,West,276,6.0,11.0,84,0.00,,,0.00,,2013-01-09 07:52:00,
2013-01-09 02:02:00,32.0,28.0,30.20,West,266,5.0,10.0,84,0.00,,,0.00,,2013-01-09 08:02:00,
2013-01-09 02:12:00,32.0,28.0,30.20,West,266,5.0,10.0,84,0.00,,,0.00,,2013-01-09 08:12:00,
2013-01-09 02:22:00,31.0,27.0,30.22,West,268,6.0,11.0,85,0.00,,,0.00,,2013-01-09 08:22:00,
2013-01-09 02:32:00,31.0,27.0,30.22,West,281,5.0,12.0,85,0.00,,,0.00,,2013-01-09 08:32:00,
2013-01-09 02:42:00,31.0,27.0,30.22,West,281,5.0,12.0,85,0.00,,,0.00,,2013-01-09 08:42:00,
2013-01-09 02:52:00,32.0,27.0,30.23,WSW,257,5.0,9.0,83,0.00,,,0.00,,2013-01-09 08:52:00,
2013-01-09 03:02:00,32.0,27.0,30.24,SW,236,5.0,10.0,82,0.00,,,0.00,,2013-01-09 09:02:00,
2013-01-09 03:12:00,32.0,27.0,30.24,SW,236,5.0,10.0,82,0.00,,,0.00,,2013-01-09 09:12:00,
2013-01-09 03:22:00,31.0,27.0,30.24,WSW,257,7.0,10.0,84,0.00,,,0.00,,2013-01-09 09:22:00,
2013-01-09 03:32:00,31.0,27.0,30.26,West,261,7.0,12.0,84,0.00,,,0.00,,2013-01-09 09:32:00,
2013-01-09 03:42:00,31.0,27.0,30.26,West,261,7.0,12.0,84,0.00,,,0.00,,2013-01-09 09:42:00,
2013-01-09 03:53:00,31.0,27.0,30.26,WSW,244,6.0,10.0,84,0.00,,,0.00,,2013-01-09 09:53:00,
2013-01-09 04:02:00,32.0,27.0,30.26,West,268,8.0,12.0,83,0.00,,,0.00,,2013-01-09 10:02:00,
2013-01-09 04:12:00,32.0,27.0,30.26,West,268,8.0,12.0,83,0.00,,,0.00,,2013-01-09 10:12:00,
2013-01-09 04:22:00,32.0,27.0,30.26,West,270,8.0,12.0,82,0.00,,,0.00,,2013-01-09 10:22:00,
2013-01-09 04:32:00,32.0,27.0,30.28,West,259,8.0,12.0,82,0.00,,,0.00,,2013-01-09 10:32:00,
2013-01-09 04:42:00,32.0,27.0,30.28,West,259,8.0,12.0,82,0.00,,,0.00,,2013-01-09 10:42:00,
2013-01-09 04:52:00,33.0,27.0,30.27,West,262,6.0,12.0,79,0.00,,,0.00,,2013-01-09 10:52:00,
2013-01-09 05:02:00,32.0,27.0,30.27,WSW,248,6.0,12.0,80,0.00,,,0.00,,2013-01-09 11:02:00,
2013-01-09 05:12:00,32.0,27.0,30.27,WSW,248,6.0,12.0,80,0.00,,,0.00,,2013-01-09 11:12:00,
2013-01-09 05:22:00,31.0,26.0,30.27,WSW,238,4.0,10.0,80,0.00,,,0.00,,2013-01-09 11:22:00,
2013-01-09 05:32:00,31.0,26.0,30.26,West,265,4.0,8.0,82,0.00,,,0.00,,2013-01-09 11:32:00,
2013-01-09 05:42:00,31.0,26.0,30.26,West,265,4.0,8.0,82,0.00,,,0.00,,2013-01-09 11:42:00,
2013-01-09 05:52:00,31.0,26.0,30.26,West,265,4.0,8.0,82,0.00,,,0.00,,2013-01-09 11:52:00,
2013-01-09 06:03:00,29.0,25.0,30.26,West,264,1.0,2.0,84,0.00,,,0.00,,2013-01-09 12:03:00,
2013-01-09 06:12:00,29.0,25.0,30.26,West,264,1.0,2.0,84,0.00,,,0.00,,2013-01-09 12:12:00,
2013-01-09 06:23:00,30.0,25.0,30.26,SSW,208,1.0,4.0,83,0.00,,,0.00,,2013-01-09 12:23:00,
2013-01-09 06:33:00,30.0,25.0,30.27,SSW,202,4.0,7.0,83,0.00,,,0.00,,2013-01-09 12:33:00,
2013-01-09 06:43:00,30.0,25.0,30.27,SSW,202,4.0,7.0,83,0.00,,,0.00,,2013-01-09 12:43:00,
2013-01-09 06:52:00,32.0,27.0,30.27,SSW,209,3.0,5.0,81,0.00,,,0.00,,2013-01-09 12:52:00,
2013-01-09 07:02:00,32.0,27.0,30.27,SSW,209,3.0,5.0,81,0.00,,,0.00,,2013-01-09 13:02:00,
2013-01-09 07:12:00,32.0,27.0,30.27,SSW,209,3.0,5.0,81,0.00,,,0.00,,2013-01-09 13:12:00,
2013-01-09 07:23:00,29.0,25.0,30.29,SSW,209,3.0,7.0,84,0.00,,,0.00,,2013-01-09 13:23:00,
2013-01-09 07:33:00,29.0,25.0,30.31,SSW,202,4.0,8.0,84,0.00,,,0.00,,2013-01-09 13:33:00,
2013-01-09 07:43:00,29.0,25.0,30.31,SSW,202,4.0,8.0,84,0.00,,,0.00,,2013-01-09 13:43:00,
2013-01-09 07:52:00,28.0,24.0,30.30,SW,221,4.0,8.0,85,0.00,,,0.00,,2013-01-09 13:52:00,
2013-01-09 08:03:00,27.0,23.0,30.30,SW,226,3.0,5.0,86,0.00,,,0.00,,2013-01-09 14:03:00,
2013-01-09 08:12:00,27.0,23.0,30.30,SW,226,3.0,5.0,86,0.00,,,0.00,,2013-01-09 14:12:00,
2013-01-09 08:22:00,27.0,24.0,30.33,SW,227,5.0,8.0,87,0.00,,,0.00,,2013-01-09 14:22:00,
2013-01-09 08:33:00,28.0,25.0,30.35,SW,225,8.0,12.0,87,0.00,,,0.00,,2013-01-09 14:33:00,
2013-01-09 08:43:00,28.0,25.0,30.35,SW,225,8.0,12.0,87,0.00,,,0.00,,2013-01-09 14:43:00,
2013-01-09 08:53:00,28.0,24.0,30.38,SSW,210,7.0,12.0,86,0.00,,,0.00,,2013-01-09 14:53:00,
2013-01-09 09:03:00,28.0,24.0,30.40,SW,224,7.0,13.0,85,0.00,,,0.00,,2013-01-09 15:03:00,
2013-01-09 09:12:00,28.0,24.0,30.40,SW,224,7.0,13.0,85,0.00,,,0.00,,2013-01-09 15:12:00,
2013-01-09 09:23:00,29.0,25.0,30.42,SSE,167,11.0,18.0,84,0.00,,,0.00,,2013-01-09 15:23:00,
2013-01-09 09:33:00,29.0,25.0,30.44,SW,227,5.0,15.0,84,0.00,,,0.00,,2013-01-09 15:33:00,
2013-01-09 09:42:00,29.0,25.0,30.44,SW,227,5.0,15.0,84,0.00,,,0.00,,2013-01-09 15:42:00,
2013-01-09 09:53:00,31.0,26.0,30.45,SW,224,5.0,14.0,81,0.00,,,0.00,,2013-01-09 15:53:00,
2013-01-09 10:03:00,31.0,26.0,30.45,SW,222,9.0,14.0,80,0.00,,,0.00,,2013-01-09 16:03:00,
2013-01-09 10:12:00,31.0,26.0,30.45,SW,222,9.0,14.0,80,0.00,,,0.00,,2013-01-09 16:12:00,
2013-01-09 10:23:00,32.0,26.0,30.46,SW,214,7.0,15.0,78,0.00,,,0.00,,2013-01-09 16:23:00,
2013-01-09 10:33:00,33.0,27.0,30.45,SW,232,6.0,14.0,78,0.00,,,0.00,,2013-01-09 16:33:00,
2013-01-09 10:43:00,33.0,27.0,30.45,SW,232,6.0,14.0,78,0.00,,,0.00,,2013-01-09 16:43:00,
2013-01-09 10:52:00,34.0,27.0,30.45,WSW,252,3.0,5.0,76,0.00,,,0.00,,2013-01-09 16:52:00,
2013-01-09 11:02:00,36.0,28.0,30.45,SW,221,6.0,9.0,73,0.00,,,0.00,,2013-01-09 17:02:00,
2013-01-09 11:12:00,36.0,28.0,30.45,SW,221,6.0,9.0,73,0.00,,,0.00,,2013-01-09 17:12:00,
2013-01-09 11:23:00,38.0,29.0,30.45,SW,234,7.0,13.0,71,0.00,,,0.00,,2013-01-09 17:23:00,
2013-01-09 11:32:00,38.0,29.0,30.45,SSW,211,6.0,11.0,70,0.00,,,0.00,,2013-01-09 17:32:00,
2013-01-09 11:43:00,38.0,29.0,30.45,SSW,211,6.0,11.0,70,0.00,,,0.00,,2013-01-09 17:43:00,
2013-01-09 11:53:00,39.0,30.0,30.44,WSW,244,3.0,6.0,69,0.00,,,0.00,,2013-01-09 17:53:00,
2013-01-09 12:03:00,39.0,29.0,30.43,SW,227,4.0,10.0,67,0.00,,,0.00,,2013-01-09 18:03:00,
2013-01-09 12:12:00,39.0,29.0,30.43,SW,227,4.0,10.0,67,0.00,,,0.00,,2013-01-09 18:12:00,
2013-01-09 12:23:00,40.0,30.0,30.42,SW,235,2.0,8.0,67,0.00,,,0.00,,2013-01-09 18:23:00,
2013-01-09 12:33:00,41.0,31.0,30.42,SW,235,3.0,7.0,66,0.00,,,0.00,,2013-01-09 18:33:00,
2013-01-09 12:43:00,41.0,31.0,30.42,SW,235,3.0,7.0,66,0.00,,,0.00,,2013-01-09 18:43:00,
2013-01-09 12:53:00,42.0,30.0,30.42,SW,225,4.0,7.0,63,0.00,,,0.00,,2013-01-09 18:53:00,
2013-01-09 13:03:00,42.0,31.0,30.41,SW,225,1.0,5.0,64,0.00,,,0.00,,2013-01-09 19:03:00,
2013-01-09 13:12:00,42.0,31.0,30.41,SW,225,1.0,5.0,64,0.00,,,0.00,,2013-01-09 19:12:00,
2013-01-09 13:22:00,43.0,30.0,30.40,SW,225,2.0,4.0,61,0.00,,,0.00,,2013-01-09 19:22:00,
2013-01-09 13:33:00,44.0,31.0,30.40,SW,225,0.0,2.0,61,0.00,,,0.00,,2013-01-09 19:33:00,
2013-01-09 13:43:00,44.0,31.0,30.40,SW,225,0.0,2.0,61,0.00,,,0.00,,2013-01-09 19:43:00,
2013-01-09 13:52:00,43.0,30.0,30.39,SSE,153,3.0,5.0,60,0.00,,,0.00,,2013-01-09 19:52:00,
2013-01-09 14:03:00,43.0,30.0,30.37,SSW,198,1.0,5.0,61,0.00,,,0.00,,2013-01-09 20:03:00,
2013-01-09 14:12:00,43.0,30.0,30.37,SSW,198,1.0,5.0,61,0.00,,,0.00,,2013-01-09 20:12:00,
2013-01-09 14:23:00,44.0,31.0,30.37,South,172,2.0,4.0,60,0.00,,,0.00,,2013-01-09 20:23:00,
2013-01-09 14:33:00,43.0,31.0,30.37,SSE,150,1.0,4.0,62,0.00,,,0.00,,2013-01-09 20:33:00,
2013-01-09 14:43:00,43.0,31.0,30.37,SSE,150,1.0,4.0,62,0.00,,,0.00,,2013-01-09 20:43:00,
2013-01-09 14:52:00,44.0,31.0,30.36,ESE,118,1.0,4.0,60,0.00,,,0.00,,2013-01-09 20:52:00,
2013-01-09 15:03:00,46.0,32.0,30.36,SE,144,1.0,5.0,57,0.00,,,0.00,,2013-01-09 21:03:00,
2013-01-09 15:13:00,46.0,32.0,30.36,SE,144,1.0,5.0,57,0.00,,,0.00,,2013-01-09 21:13:00,
2013-01-09 15:22:00,45.0,31.0,30.36,SE,135,1.0,4.0,57,0.00,,,0.00,,2013-01-09 21:22:00,
2013-01-09 15:33:00,45.0,31.0,30.36,SE,134,0.0,2.0,58,0.00,,,0.00,,2013-01-09 21:33:00,
2013-01-09 15:43:00,45.0,31.0,30.36,SE,134,0.0,2.0,58,0.00,,,0.00,,2013-01-09 21:43:00,
2013-01-09 15:52:00,45.0,32.0,30.37,SE,134,0.0,2.0,59,0.00,,,0.00,,2013-01-09 21:52:00,
2013-01-09 16:03:00,44.0,31.0,30.37,SE,134,0.0,1.0,60,0.00,,,0.00,,2013-01-09 22:03:00,
2013-01-09 16:12:00,44.0,31.0,30.37,SE,134,0.0,1.0,60,0.00,,,0.00,,2013-01-09 22:12:00,
2013-01-09 16:23:00,44.0,31.0,30.37,SE,134,0.0,0.0,61,0.00,,,0.00,,2013-01-09 22:23:00,
2013-01-09 16:33:00,44.0,31.0,30.36,SE,134,0.0,0.0,61,0.00,,,0.00,,2013-01-09 22:33:00,
2013-01-09 16:43:00,44.0,31.0,30.36,SE,134,0.0,0.0,61,0.00,,,0.00,,2013-01-09 22:43:00,
2013-01-09 16:52:00,44.0,31.0,30.36,SE,134,0.0,0.0,61,0.00,,,0.00,,2013-01-09 22:52:00,
2013-01-09 17:02:00,44.0,32.0,30.36,SSE,168,1.0,3.0,62,0.00,,,0.00,,2013-01-09 23:02:00,
2013-01-09 17:13:00,44.0,32.0,30.36,SSE,168,1.0,3.0,62,0.00,,,0.00,,2013-01-09 23:13:00,
2013-01-09 17:22:00,43.0,31.0,30.35,SSE,167,0.0,1.0,63,0.00,,,0.00,,2013-01-09 23:22:00,
2013-01-09 17:33:00,42.0,30.0,30.35,SE,135,1.0,4.0,63,0.00,,,0.00,,2013-01-09 23:33:00,
2013-01-09 17:43:00,42.0,30.0,30.35,SE,135,1.0,4.0,63,0.00,,,0.00,,2013-01-09 23:43:00,
2013-01-09 17:52:00,41.0,30.0,30.35,SSE,155,0.0,2.0,65,0.00,,,0.00,,2013-01-09 23:52:00,
2013-01-09 18:03:00,41.0,31.0,30.35,SE,132,1.0,4.0,67,0.00,,,0.00,,2013-01-10 00:03:00,
2013-01-09 18:12:00,41.0,31.0,30.35,SE,132,1.0,4.0,67,0.00,,,0.00,,2013-01-10 00:12:00,
2013-01-09 18:22:00,40.0,30.0,30.35,SE,136,1.0,6.0,68,0.00,,,0.00,,2013-01-10 00:22:00,
2013-01-09 18:32:00,40.0,30.0,30.35,SE,125,2.0,5.0,68,0.00,,,0.00,,2013-01-10 00:32:00,
2013-01-09 18:42:00,40.0,30.0,30.35,SE,125,2.0,5.0,68,0.00,,,0.00,,2013-01-10 00:42:00,
2013-01-09 18:52:00,40.0,31.0,30.36,SE,128,2.0,3.0,70,0.00,,,0.00,,2013-01-10 00:52:00,
2013-01-09 19:02:00,40.0,31.0,30.35,ESE,121,3.0,5.0,70,0.00,,,0.00,,2013-01-10 01:02:00,
2013-01-09 19:12:00,40.0,31.0,30.35,ESE,121,3.0,5.0,70,0.00,,,0.00,,2013-01-10 01:12:00,
2013-01-09 19:22:00,40.0,32.0,30.36,SE,126,3.0,5.0,72,0.00,,,0.00,,2013-01-10 01:22:00,
2013-01-09 19:33:00,40.0,31.0,30.36,SE,130,5.0,8.0,71,0.00,,,0.00,,2013-01-10 01:33:00,
2013-01-09 19:43:00,40.0,31.0,30.36,SE,130,5.0,8.0,71,0.00,,,0.00,,2013-01-10 01:43:00,
2013-01-09 19:52:00,40.0,32.0,30.35,SE,132,4.0,10.0,72,0.00,,,0.00,,2013-01-10 01:52:00,
2013-01-09 20:03:00,41.0,32.0,30.36,SE,139,6.0,12.0,70,0.00,,,0.00,,2013-01-10 02:03:00,
2013-01-09 20:12:00,41.0,32.0,30.36,SE,139,6.0,12.0,70,0.00,,,0.00,,2013-01-10 02:12:00,
2013-01-09 20:22:00,41.0,31.0,30.35,SE,132,5.0,14.0,68,0.00,,,0.00,,2013-01-10 02:22:00,
2013-01-09 20:32:00,42.0,32.0,30.36,SE,141,6.0,13.0,68,0.00,,,0.00,,2013-01-10 02:32:00,
2013-01-09 20:42:00,42.0,32.0,30.36,SE,141,6.0,13.0,68,0.00,,,0.00,,2013-01-10 02:42:00,
2013-01-09 20:52:00,42.0,32.0,30.36,SE,141,6.0,13.0,68,0.00,,,0.00,,2013-01-10 02:52:00,
2013-01-09 21:03:00,42.0,33.0,30.35,SE,135,7.0,12.0,69,0.00,,,0.00,,2013-01-10 03:03:00,
2013-01-09 21:12:00,42.0,33.0,30.35,SE,135,7.0,12.0,69,0.00,,,0.00,,2013-01-10 03:12:00,
2013-01-09 21:22:00,42.0,32.0,30.35,SE,144,9.0,16.0,68,0.00,,,0.00,,2013-01-10 03:22:00,
2013-01-09 21:33:00,42.0,31.0,30.34,SSE,162,7.0,13.0,66,0.00,,,0.00,,2013-01-10 03:33:00,
2013-01-09 21:42:00,42.0,31.0,30.34,SSE,162,7.0,13.0,66,0.00,,,0.00,,2013-01-10 03:42:00,
2013-01-09 21:52:00,42.0,31.0,30.34,SE,145,5.0,13.0,66,0.00,,,0.00,,2013-01-10 03:52:00,
2013-01-09 22:02:00,42.0,31.0,30.34,SSE,158,7.0,14.0,65,0.00,,,0.00,,2013-01-10 04:02:00,
2013-01-09 22:12:00,42.0,31.0,30.34,SSE,158,7.0,14.0,65,0.00,,,0.00,,2013-01-10 04:12:00,
2013-01-09 22:22:00,42.0,31.0,30.34,SSE,148,8.0,14.0,64,0.00,,,0.00,,2013-01-10 04:22:00,
2013-01-09 22:32:00,42.0,31.0,30.34,SSE,153,7.0,14.0,64,0.00,,,0.00,,2013-01-10 04:32:00,
2013-01-09 22:42:00,42.0,31.0,30.34,SSE,153,7.0,14.0,64,0.00,,,0.00,,2013-01-10 04:42:00,
2013-01-09 22:52:00,42.0,31.0,30.34,SSE,153,7.0,14.0,64,0.00,,,0.00,,2013-01-10 04:52:00,
2013-01-09 23:03:00,43.0,30.0,30.35,SSW,204,10.0,17.0,61,0.00,,,0.00,,2013-01-10 05:03:00,
2013-01-09 23:12:00,43.0,30.0,30.35,SSW,204,10.0,17.0,61,0.00,,,0.00,,2013-01-10 05:12:00,
2013-01-09 23:22:00,43.0,30.0,30.35,South,180,10.0,18.0,61,0.00,,,0.00,,2013-01-10 05:22:00,
2013-01-09 23:33:00,42.0,30.0,30.35,SSW,199,8.0,17.0,63,0.00,,,0.00,,2013-01-10 05:33:00,
2013-01-09 23:42:00,42.0,30.0,30.35,SSW,199,8.0,17.0,63,0.00,,,0.00,,2013-01-10 05:42:00,
2013-01-09 23:52:00,41.0,30.0,30.35,South,191,9.0,15.0,65,0.00,,,0.00,,2013-01-10 05:52:00,